Flag for Ecuador Weather past 2 weeks in Quito, Ecuador

Now
66 °F

Broken clouds.


Feels Like: 66 °F
Forecast: 49 / 65 °F
Wind: 20 mph from Southeast

Location: Latacunga Airport

Current Time: Jan 28, 2015 at 3:38:45 PM

Latest Report: Jan 28, 2015 at 3:00 PM


Visibility: N/A

Pressure: 30.30 "Hg

Humidity: 60%

Dew point: 52 °F

Location of QuitoLocation

Historic Weather in Quito — Graph

°F

Quito temperature yesterday

Maximum temperature yesterday: 70 °F (at 1:00 PM)
Minimum temperature yesterday: 54 °F (at 6:00 PM)
Average temperature yesterday: 59 °F

Past Weeks' High & Low Weather Summary

 TemperatureHumidityPressure
High73 °F (Jan 16, 3:00 PM)100% (Jan 14, 12:00 AM)30.51 "Hg (Jan 14, 12:00 AM)
Low46 °F (Jan 14, 6:00 AM)43% (Jan 27, 1:00 PM)30.24 "Hg (Jan 25, 4:00 PM)
Average56 °F85%30.40 "Hg
* Reported Jan 13 2:00 PM — Jan 28 2:00 PM, Quito, Weather by CustomWeather, © 2014

Note: Actual official high and low records may vary slightly from our data, if they occured in-between our weather recording intervals... More about our weather records

Advertising

Quito weather history for previous 24 hours

 ConditionsComfort  
Time TempWeatherWind HumidityBarometerVisibility
2:00 PM
Jan 28
64 °FBroken clouds.16 mph64%30.33 "HgN/A
1:00 PM64 °FBroken clouds.17 mph64%30.36 "HgN/A
12:00 PM63 °FBroken clouds.12 mph68%30.39 "HgN/A
11:00 AM59 °FBroken clouds.9 mph77%30.42 "HgN/A
10:00 AM57 °FBroken clouds.10 mph82%30.42 "HgN/A
9:00 AM54 °FBroken clouds.1 mph88%30.42 "HgN/A
8:00 AM52 °FBroken clouds.1 mph94%30.42 "HgN/A
7:00 AM50 °FBroken clouds.2 mph94%30.39 "HgN/A
5:00 AM50 °FPassing clouds.2 mph94%30.39 "HgN/A
4:00 AM50 °FPassing clouds.2 mph94%30.36 "HgN/A
3:00 AM52 °FPassing clouds.2 mph100%30.36 "HgN/A
2:00 AM54 °FPassing clouds.2 mph94%30.36 "HgN/A
1:00 AM54 °FPassing clouds.2 mph94%30.39 "HgN/A
10:00 PM
Jan 27
54 °FPartly cloudy.No wind94%30.42 "HgN/A
9:00 PM54 °FPartly cloudy.1 mph94%30.42 "HgN/A
8:00 PM54 °FPartly cloudy.5 mph94%30.39 "HgN/A
7:00 PM54 °FScattered showers. Passing clouds.2 mph94%30.36 "HgN/A
6:00 PM54 °FThunderstorms. Partly sunny.6 mph88%30.33 "HgN/A
5:00 PM57 °FThunderstorms. Partly sunny.6 mph88%30.30 "HgN/A
4:00 PM59 °FLight rain. Partly sunny.7 mph82%30.30 "HgN/A
3:00 PM61 °FLight rain. Partly sunny.14 mph88%30.30 "HgN/A
Weather by CustomWeather, © 2014

See weather overviewHow to use our weather pages